Flag for Germany Weather past 2 weeks in Melsungen, Hesse, Germany

Now
25 °F

Fog.


Feels Like: 25 °F
Forecast: 27 / 36 °F
Wind: 1 mph from Northwest

Location: Fritzlar

Current Time: Feb 1, 2015 at 9:57:40 AM

Latest Report: Feb 1, 2015 at 9:00 AM


Visibility: 4 mi

Pressure: 29.23 "Hg

Humidity: 94%

Dew point: 24 °F

Location of MelsungenLocation

Historic Weather in Melsungen — Graph

°F

Melsungen temperature yesterday

Maximum temperature yesterday: 37 °F (at 1:00 PM)
Minimum temperature yesterday: 27 °F (at 1:00 AM)
Average temperature yesterday: 33 °F

Past Weeks' High & Low Weather Summary

 TemperatureHumidityPressure
High40 °F (Jan 25, 3:00 PM)96% (Jan 19, 4:00 AM)30.40 "Hg (Jan 19, 4:00 AM)
Low24 °F (Jan 19, 6:00 AM)68% (Jan 17, 3:00 PM)28.70 "Hg (Jan 30, 2:00 AM)
Average33 °F88%29.84 "Hg
* Reported Jan 17 8:00 AM — Feb 1 8:00 AM, Melsungen, Weather by CustomWeather, © 2014

Note: Actual official high and low records may vary slightly from our data, if they occured in-between our weather recording intervals... More about our weather records

Advertising

Melsungen weather history for previous 24 hours

 ConditionsComfort  
Time TempWeatherWind HumidityBarometerVisibility
8:00 AM
Feb 1
27 °FFog.1 mph95%29.21 "Hg5 mi
7:00 AM27 °FPassing clouds.1 mph92%29.21 "Hg6 mi
6:00 AM29 °FOvercast.2 mph92%29.18 "Hg6 mi
5:00 AM30 °FFog.2 mph90%29.18 "Hg4 mi
4:00 AM29 °FFog.2 mph92%29.18 "Hg4 mi
3:00 AM30 °FFog.3 mph90%29.15 "Hg4 mi
2:00 AM29 °FFog.3 mph93%29.15 "Hg4 mi
1:00 AM29 °FFog.3 mph93%29.18 "Hg4 mi
12:00 AM29 °FFog.3 mph95%29.15 "Hg2 mi
11:00 PM
Jan 31
31 °FPassing clouds.2 mph90%29.15 "Hg9 mi
9:00 PM31 °FPassing clouds.3 mph89%29.12 "Hg11 mi
8:00 PM34 °FOvercast.N/A85%29.12 "Hg12 mi
7:00 PM34 °FOvercast.2 mph87%29.09 "Hg12 mi
6:00 PM34 °FPassing clouds.1 mph86%29.06 "Hg12 mi
5:00 PM35 °FOvercast.1 mph83%29.06 "Hg12 mi
4:00 PM36 °FOvercast.3 mph82%29.03 "Hg12 mi
3:00 PM36 °FOvercast.5 mph81%29.03 "Hg12 mi
2:00 PM36 °FOvercast.5 mph80%29.00 "Hg11 mi
1:00 PM37 °FOvercast.5 mph79%29.00 "Hg11 mi
12:00 PM36 °FOvercast.5 mph80%29.00 "Hg6 mi
11:00 AM35 °FOvercast.2 mph83%28.97 "Hg10 mi
10:00 AM33 °FSnow flurries. Overcast.3 mph89%28.97 "Hg9 mi
9:00 AM30 °FOvercast.3 mph92%28.97 "Hg7 mi
Weather by CustomWeather, © 2014

See weather overviewHow to use our weather pages